• In Czech Republic
  • List of Countries
  • For 7 days
  • Water Temperature
  • Satellite Maps
  • Weather Map
  • Weather Widgets
  • user-avatar
    Login

    Hourly Weather Perth

    Today, 24 September, Sunday

    Time Temperature Precipitation Wind Pressure Humidity
    00:00 +10°C° 0.4 mm 2 mps 757 mmHg 81%
    01:00 +9°C° 0.4 mm 2 mps 756 mmHg 82%
    02:00 +10°C° 0 mm 2 mps 755 mmHg 84%
    03:00 +10°C° 0.8 mm 2 mps 755 mmHg 86%
    04:00 +10°C° 0.8 mm 3 mps 755 mmHg 88%
    05:00 +10°C° 0.8 mm 3 mps 755 mmHg 89%
    06:00 +10°C° 0.7 mm 3 mps 755 mmHg 88%
    07:00 +11°C° 0.7 mm 4 mps 754 mmHg 88%
    08:00 +12°C° 0 mm 3 mps 754 mmHg 85%
    09:00 +13°C° 0.4 mm 3 mps 754 mmHg 79%
    10:00 +14°C° 0.4 mm 3 mps 754 mmHg 72%
    11:00 +17°C° 0.4 mm 3 mps 753 mmHg 66%
    12:00 +15°C° 1.2 mm 4 mps 753 mmHg 72%
    13:00 +14°C° 1.2 mm 4 mps 752 mmHg 78%
    14:00 +14°C° 1.2 mm 4 mps 752 mmHg 84%
    15:00 +13°C° 1.5 mm 4 mps 752 mmHg 84%
    16:00 +13°C° 1.5 mm 4 mps 751 mmHg 85%
    17:00 +13°C° 1.5 mm 4 mps 751 mmHg 85%
    18:00 +12°C° 0.5 mm 4 mps 751 mmHg 85%
    19:00 +12°C° 0.5 mm 4 mps 751 mmHg 84%
    20:00 +11°C° 0.5 mm 4 mps 751 mmHg 84%
    21:00 +11°C° 0.5 mm 4 mps 751 mmHg 84%
    22:00 +11°C° 0.5 mm 4 mps 751 mmHg 85%
    23:00 +10°C° 0.5 mm 4 mps 751 mmHg 86%

    Tomorrow, 25 September, Monday

    Time Temperature Precipitation Wind Pressure Humidity
    00:00 +10°C° 0.6 mm 4 mps 751 mmHg 87%
    01:00 +10°C° 0.6 mm 4 mps 750 mmHg 87%
    02:00 +10°C° 0.6 mm 4 mps 750 mmHg 88%
    03:00 +10°C° 0.5 mm 3 mps 750 mmHg 89%
    04:00 +10°C° 0.5 mm 3 mps 750 mmHg 90%
    05:00 +9°C° 0.5 mm 3 mps 750 mmHg 91%
    06:00 +10°C° 0.5 mm 3 mps 750 mmHg 90%
    07:00 +11°C° 0.5 mm 3 mps 750 mmHg 89%
    08:00 +11°C° 0.5 mm 3 mps 750 mmHg 88%
    09:00 +13°C° 0.4 mm 3 mps 751 mmHg 80%
    10:00 +16°C° 0.4 mm 3 mps 751 mmHg 72%
    11:00 +17°C° 0.4 mm 2 mps 751 mmHg 65%
    12:00 +17°C° 0.4 mm 3 mps 751 mmHg 64%
    13:00 +17°C° 0.4 mm 4 mps 750 mmHg 64%
    14:00 +17°C° 0.4 mm 5 mps 750 mmHg 63%
    15:00 +16°C° 0.2 mm 5 mps 751 mmHg 64%
    16:00 +16°C° 0.2 mm 5 mps 751 mmHg 64%
    17:00 +15°C° 0.2 mm 6 mps 751 mmHg 64%
    18:00 +14°C° 0.1 mm 5 mps 752 mmHg 67%
    19:00 +13°C° 0.1 mm 5 mps 753 mmHg 70%
    20:00 +10°C° 0.1 mm 5 mps 754 mmHg 73%
    21:00 +10°C° 0 mm 5 mps 754 mmHg 75%
    22:00 +9°C° 0 mm 5 mps 754 mmHg 76%
    23:00 +10°C° 0 mm 4 mps 755 mmHg 78%

    Day after tomorrow, 26 September, Tuesday

    Time Temperature Precipitation Wind Pressure Humidity
    00:00 +8°C° 0 mm 4 mps 755 mmHg 80%
    01:00 +8°C° 0 mm 4 mps 755 mmHg 83%
    02:00 +8°C° 0 mm 4 mps 755 mmHg 86%
    03:00 +8°C° 0 mm 5 mps 756 mmHg 86%
    04:00 +8°C° 0 mm 5 mps 756 mmHg 86%
    05:00 +8°C° 0 mm 5 mps 756 mmHg 86%
    06:00 +9°C° 0 mm 5 mps 757 mmHg 82%
    07:00 +10°C° 0 mm 5 mps 758 mmHg 77%
    08:00 +10°C° 0 mm 5 mps 759 mmHg 72%
    09:00 +13°C° 0 mm 5 mps 759 mmHg 65%
    10:00 +14°C° 0 mm 5 mps 759 mmHg 57%
    11:00 +17°C° 0 mm 4 mps 760 mmHg 50%
    12:00 +17°C° 0 mm 4 mps 759 mmHg 48%
    13:00 +17°C° 0 mm 5 mps 759 mmHg 46%
    14:00 +17°C° 0 mm 5 mps 759 mmHg 44%
    15:00 +17°C° 0 mm 5 mps 759 mmHg 47%
    16:00 +16°C° 0 mm 5 mps 760 mmHg 51%
    17:00 +15°C° 0 mm 5 mps 760 mmHg 55%
    18:00 +14°C° 0 mm 5 mps 761 mmHg 59%
    19:00 +12°C° 0 mm 5 mps 762 mmHg 63%
    20:00 +11°C° 0 mm 4 mps 762 mmHg 66%
    21:00 +10°C° 0 mm 4 mps 763 mmHg 70%
    22:00 +10°C° 0 mm 4 mps 763 mmHg 74%
    23:00 +8°C° 0 mm 4 mps 764 mmHg 77%

    27 September, Wednesday

    Time Temperature Precipitation Wind Pressure Humidity
    00:00 +7°C° 0 mm 4 mps 764 mmHg 79%
    01:00 +8°C° 0 mm 3 mps 764 mmHg 81%
    02:00 +7°C° 0 mm 3 mps 764 mmHg 83%
    03:00 +7°C° 0 mm 3 mps 764 mmHg 84%
    04:00 +7°C° 0 mm 3 mps 764 mmHg 84%
    05:00 +6°C° 0 mm 2 mps 764 mmHg 84%
    06:00 +8°C° 0 mm 2 mps 765 mmHg 78%
    07:00 +9°C° 0 mm 2 mps 765 mmHg 72%
    08:00 +10°C° 0 mm 2 mps 766 mmHg 66%
    09:00 +13°C° 0 mm 2 mps 766 mmHg 59%
    10:00 +15°C° 0 mm 2 mps 766 mmHg 52%
    11:00 +17°C° 0 mm 2 mps 766 mmHg 44%
    12:00 +17°C° 0 mm 2 mps 765 mmHg 46%
    13:00 +17°C° 0 mm 3 mps 765 mmHg 48%
    14:00 +17°C° 0 mm 3 mps 764 mmHg 50%
    15:00 +16°C° 0.1 mm 3 mps 764 mmHg 57%
    16:00 +14°C° 0.1 mm 3 mps 764 mmHg 64%
    17:00 +13°C° 0.1 mm 3 mps 764 mmHg 71%
    18:00 +13°C° 0.2 mm 3 mps 765 mmHg 75%
    19:00 +13°C° 0.2 mm 2 mps 765 mmHg 80%
    20:00 +12°C° 0.2 mm 2 mps 766 mmHg 85%
    21:00 +12°C° 0.1 mm 2 mps 766 mmHg 84%
    22:00 +10°C° 0.1 mm 2 mps 766 mmHg 84%
    23:00 +10°C° 0.1 mm 2 mps 766 mmHg 84%

    28 September, Thursday

    Time Temperature Precipitation Wind Pressure Humidity
    00:00 +10°C° 0.2 mm 2 mps 765 mmHg 84%
    01:00 +10°C° 0.2 mm 2 mps 765 mmHg 83%
    02:00 +11°C° 0.2 mm 3 mps 765 mmHg 83%
    03:00 +11°C° 0.2 mm 3 mps 765 mmHg 84%
    04:00 +10°C° 0.2 mm 3 mps 765 mmHg 85%
    05:00 +10°C° 0.2 mm 3 mps 765 mmHg 85%
    06:00 +11°C° 0.1 mm 4 mps 765 mmHg 83%
    07:00 +11°C° 0.1 mm 4 mps 766 mmHg 80%
    08:00 +12°C° 0.1 mm 5 mps 766 mmHg 77%
    09:00 +13°C° 0 mm 5 mps 766 mmHg 68%
    10:00 +14°C° 0 mm 5 mps 766 mmHg 60%
    11:00 +15°C° 0 mm 5 mps 766 mmHg 51%
    12:00 +16°C° 0 mm 5 mps 766 mmHg 49%
    13:00 +16°C° 0 mm 5 mps 765 mmHg 48%
    14:00 +17°C° 0 mm 5 mps 765 mmHg 46%
    15:00 +16°C° 0 mm 5 mps 765 mmHg 49%
    16:00 +16°C° 0 mm 5 mps 765 mmHg 53%
    17:00 +15°C° 0 mm 5 mps 766 mmHg 56%
    18:00 +14°C° 0 mm 5 mps 766 mmHg 62%
    19:00 +13°C° 0 mm 4 mps 767 mmHg 67%
    20:00 +11°C° 0 mm 4 mps 768 mmHg 72%
    21:00 +11°C° 0 mm 4 mps 768 mmHg 75%
    22:00 +10°C° 0 mm 4 mps 768 mmHg 77%
    23:00 +8°C° 0 mm 4 mps 768 mmHg 80%

    29 September, Friday

    Time Temperature Precipitation Wind Pressure Humidity
    00:00 +8°C° 0 mm 4 mps 768 mmHg 81%
    01:00 +7°C° 0 mm 4 mps 768 mmHg 82%
    02:00 +7°C° 0 mm 4 mps 768 mmHg 83%
    03:00 +8°C° 0 mm 3 mps 768 mmHg 84%
    04:00 +7°C° 0 mm 3 mps 768 mmHg 85%
    05:00 +7°C° 0 mm 3 mps 768 mmHg 85%
    06:00 +8°C° 0 mm 3 mps 769 mmHg 80%
    07:00 +9°C° 0 mm 3 mps 769 mmHg 75%
    08:00 +11°C° 0 mm 3 mps 770 mmHg 70%
    09:00 +13°C° 0 mm 3 mps 769 mmHg 62%
    10:00 +16°C° 0 mm 2 mps 769 mmHg 54%
    11:00 +18°C° 0 mm 2 mps 769 mmHg 46%
    12:00 +18°C° 0 mm 2 mps 769 mmHg 45%
    13:00 +19°C° 0 mm 3 mps 768 mmHg 44%
    14:00 +19°C° 0 mm 3 mps 768 mmHg 44%
    15:00 +19°C° 0 mm 3 mps 768 mmHg 47%
    16:00 +19°C° 0 mm 3 mps 768 mmHg 50%
    17:00 +18°C° 0 mm 4 mps 768 mmHg 54%
    18:00 +17°C° 0 mm 4 mps 768 mmHg 59%
    19:00 +14°C° 0 mm 4 mps 769 mmHg 65%
    20:00 +12°C° 0 mm 4 mps 769 mmHg 70%
    21:00 +12°C° 0 mm 4 mps 769 mmHg 72%
    22:00 +11°C° 0 mm 4 mps 769 mmHg 74%
    23:00 +10°C° 0 mm 4 mps 769 mmHg 76%
    Show more